TimeMST,TemperatureF,Dew PointF,Humidity,Sea Level PressureIn,VisibilityMPH,Wind Direction,Wind SpeedMPH,Gust SpeedMPH,PrecipitationIn,Events,Conditions,WindDirDegrees,DateUTC
12:56 AM,37.0,18.0,46,30.04,10.0,West,20.7,31.1,N/A,,Clear,280,2013-01-19 07:56:00
1:56 AM,37.0,19.0,48,30.08,10.0,WNW,17.3,27.6,N/A,,Clear,290,2013-01-19 08:56:00
2:56 AM,30.0,19.9,66,30.15,10.0,North,15.0,-,N/A,,Clear,350,2013-01-19 09:56:00
3:56 AM,25.0,21.0,85,30.19,10.0,NNW,8.1,-,N/A,,Clear,340,2013-01-19 10:56:00
4:49 AM,26.6,21.2,80,30.12,10.0,North,9.2,-,N/A,,Mostly Cloudy,350,2013-01-19 11:49:00
4:56 AM,26.1,23.0,88,30.21,10.0,North,9.2,-,N/A,,Mostly Cloudy,350,2013-01-19 11:56:00
5:56 AM,27.0,23.0,85,30.24,10.0,NNE,5.8,-,N/A,,Overcast,30,2013-01-19 12:56:00
6:44 AM,26.6,21.2,80,30.18,10.0,NNE,12.7,-,N/A,,Overcast,20,2013-01-19 13:44:00
6:56 AM,25.0,21.0,85,30.28,10.0,NNE,13.8,-,N/A,,Overcast,20,2013-01-19 13:56:00
7:56 AM,24.1,19.9,84,30.30,10.0,NE,10.4,-,N/A,,Overcast,40,2013-01-19 14:56:00
8:11 AM,23.0,21.2,93,30.21,10.0,NE,9.2,-,N/A,,Overcast,40,2013-01-19 15:11:00
8:49 AM,21.2,21.2,100,30.22,1.5,NNE,9.2,-,N/A,,Overcast,30,2013-01-19 15:49:00
8:52 AM,23.0,21.2,93,30.22,0.8,NE,8.1,-,N/A,,Overcast,40,2013-01-19 15:52:00
8:56 AM,23.0,21.9,96,30.34,0.5,NNE,9.2,-,N/A,Fog,Light Freezing Fog,30,2013-01-19 15:56:00
9:03 AM,23.0,21.2,93,30.23,0.2,NE,6.9,-,N/A,Fog,Light Freezing Fog,40,2013-01-19 16:03:00
9:35 AM,23.0,21.2,93,30.24,0.5,NE,5.8,-,N/A,Fog,Light Freezing Fog,40,2013-01-19 16:35:00
9:49 AM,23.0,21.2,93,30.24,1.0,NE,4.6,-,N/A,,Mist,50,2013-01-19 16:49:00
9:56 AM,23.0,21.9,96,30.35,0.8,ENE,5.8,-,N/A,,Mist,70,2013-01-19 16:56:00
10:12 AM,23.0,21.2,93,30.25,2.5,East,8.1,-,N/A,,Overcast,80,2013-01-19 17:12:00
10:19 AM,23.0,21.2,93,30.25,4.0,East,8.1,-,N/A,,Overcast,80,2013-01-19 17:19:00
10:56 AM,21.9,21.0,96,30.35,5.0,East,6.9,-,N/A,,Overcast,80,2013-01-19 17:56:00
11:56 AM,23.0,21.0,92,30.31,10.0,SE,4.6,-,N/A,,Overcast,140,2013-01-19 18:56:00
12:11 PM,24.8,21.2,86,30.20,10.0,SE,8.1,-,N/A,,Overcast,130,2013-01-19 19:11:00
12:56 PM,25.0,21.9,88,30.28,10.0,SSE,8.1,-,N/A,,Overcast,150,2013-01-19 19:56:00
1:56 PM,28.0,24.1,85,30.23,10.0,SSE,9.2,-,N/A,,Overcast,160,2013-01-19 20:56:00
2:47 PM,26.6,24.8,93,30.11,10.0,SSE,9.2,-,N/A,,Overcast,150,2013-01-19 21:47:00
2:56 PM,27.0,24.1,89,30.22,10.0,SSE,10.4,-,N/A,,Overcast,150,2013-01-19 21:56:00
3:56 PM,28.9,24.1,82,30.19,10.0,South,13.8,-,N/A,,Mostly Cloudy,180,2013-01-19 22:56:00
4:56 PM,28.0,24.1,85,30.18,10.0,ENE,3.5,-,N/A,,Scattered Clouds,70,2013-01-19 23:56:00
5:56 PM,26.1,21.9,84,30.18,10.0,West,3.5,-,N/A,,Clear,270,2013-01-20 00:56:00
6:56 PM,28.9,19.0,67,30.16,10.0,WNW,4.6,-,N/A,,Clear,300,2013-01-20 01:56:00
7:56 PM,37.0,16.0,42,30.14,10.0,West,19.6,-,N/A,,Clear,280,2013-01-20 02:56:00
8:56 PM,27.0,18.0,69,30.25,10.0,NNW,26.5,35.7,N/A,,Clear,340,2013-01-20 03:56:00
9:02 PM,24.8,17.6,74,30.13,10.0,North,25.3,35.7,N/A,,Clear,350,2013-01-20 04:02:00
9:56 PM,21.0,16.0,81,30.32,10.0,NNW,26.5,34.5,N/A,,Clear,340,2013-01-20 04:56:00
10:56 PM,19.9,15.1,81,30.38,10.0,NNW,21.9,34.5,N/A,,Clear,340,2013-01-20 05:56:00
11:56 PM,21.0,15.1,78,30.43,10.0,NNW,26.5,34.5,N/A,,Clear,330,2013-01-20 06:56:00